Weather History for Leadville, CO

Change the Weather History Date:

Monday, October 14, 2013

  Actual Average Record
Temperature  
Mean Temperature 33 °F -  
Max Temperature 38 °F 50 °F 65 °F (1989)
Min Temperature 27 °F 24 °F 12 °F (1997)
Degree Days  
Heating Degree Days 32 28  
Month to date heating degree days 383 362  
Since 1 July heating degree days 1465 1660  
Cooling Degree Days 0 0  
Month to date cooling degree days 0 0  
Year to date cooling degree days 0 0  
Moisture  
Dew Point 25 °F    
Average Humidity 78    
Maximum Humidity 92    
Minimum Humidity 64    
Precipitation  
Precipitation 0.10 in 0.03 in 0.39 in (2007)
Month to date precipitation 0.41 0.41  
Year to date precipitation 15.63 10.44  
Sea Level Pressure  
Sea Level Pressure 29.99 in    
Wind  
Wind Speed 8 mph (NNW)    
Max Wind Speed 20 mph    
Max Gust Speed 25 mph    
Visibility 6 miles    
Events Fog , Snow    
T = Trace of Precipitation, MM = Missing Value Source: NWS Daily Summary

Daily Weather History Graph

Daily Weather History Graph

Search for Another Location

Airport:

Trip Planner

Search our weather history database for the weather conditions in past years. The results will help you decide how hot, cold, wet, or windy it might be!

Date:

Astronomy

Oct. 14, 2013 Rise Set
Actual Time 7:14 AM MDT 6:27 PM MDT
Civil Twilight 6:47 AM MDT 6:54 PM MDT
Nautical Twilight 6:16 AM MDT 7:25 PM MDT
Astronomical Twilight 5:45 AM MDT 7:56 PM MDT
Moon 3:57 PM MDT (10/14) 2:35 AM MDT (10/14)
Length of Visible Light 12h 07m
Length of Day
11h 13m
Waxing Gibbous, 80% of the Moon is Illuminated
Oct 14
Waxing Gibbous
Oct 18
Full
Oct 26
Last Quarter
Nov 3
New
Nov 9
First Quarter

Hourly Weather History & Observations

Time (MDT) Temp. Windchill Dew Point Humidity Pressure Visibility Wind Dir Wind Speed Gust Speed Precip Events Conditions
12:53 AM 30.0 °F - 28.9 °F 96% 29.75 in 10.0 mi Calm Calm - N/A   Partly Cloudy
1:53 AM 33.1 °F 28.7 °F 28.9 °F 85% 29.72 in 10.0 mi Variable 4.6 mph - N/A   Clear
2:53 AM 28.0 °F 22.8 °F 26.1 °F 92% 29.71 in 10.0 mi NNE 4.6 mph - N/A   Partly Cloudy
3:53 AM 32.0 °F - 27.0 °F 82% 29.68 in 10.0 mi Calm Calm - 0.00 in   Overcast
4:53 AM 32.0 °F 27.5 °F 25.0 °F 75% 29.65 in 10.0 mi SSE 4.6 mph - N/A   Clear
5:53 AM 30.0 °F 18.3 °F 24.1 °F 79% 29.73 in 1.5 mi SW 17.3 mph 25.3 mph 0.00 in Snow Light Snow
6:02 AM 28.4 °F 19.7 °F 26.6 °F 93% 30.02 in 0.5 mi WSW 9.2 mph 23.0 mph 0.00 in Fog , Snow Snow
6:11 AM 28.4 °F 23.3 °F 26.6 °F 93% 30.03 in 0.5 mi West 4.6 mph - 0.01 in Fog , Snow Snow
6:21 AM 28.4 °F 24.6 °F 26.6 °F 93% 30.03 in 0.5 mi Variable 3.5 mph - 0.02 in Fog , Snow Snow
6:28 AM 28.4 °F 24.6 °F 26.6 °F 93% 30.02 in 0.2 mi West 3.5 mph - 0.05 in Fog , Snow Snow
6:37 AM 28.4 °F - 26.6 °F 93% 30.02 in 0.5 mi Calm Calm - 0.05 in Fog , Snow Snow
6:50 AM 28.4 °F 23.3 °F 26.6 °F 93% 30.02 in 0.8 mi North 4.6 mph - 0.07 in Snow Light Snow
6:53 AM 28.0 °F 21.7 °F 26.1 °F 92% 29.75 in 1.8 mi North 5.8 mph - 0.07 in Snow Light Snow
6:55 AM 28.4 °F 23.3 °F 26.6 °F 93% 30.02 in 4.0 mi North 4.6 mph - 0.00 in Snow Light Snow
7:05 AM 28.4 °F 21.2 °F 24.8 °F 86% 30.03 in 7.0 mi North 6.9 mph - 0.00 in   Overcast
7:11 AM 28.4 °F 20.4 °F 24.8 °F 86% 30.03 in 1.8 mi WNW 8.1 mph - 0.00 in Snow Light Snow
7:17 AM 28.4 °F 19.7 °F 24.8 °F 86% 30.03 in 0.8 mi NW 9.2 mph - 0.00 in Snow Light Snow
7:25 AM 26.6 °F 22.6 °F 24.8 °F 93% 30.03 in 0.2 mi NW 3.5 mph - 0.01 in Fog , Snow Heavy Snow
7:34 AM 26.6 °F 19.1 °F 24.8 °F 93% 30.04 in 0.5 mi NNE 6.9 mph - 0.02 in Fog , Snow Light Snow
7:40 AM 26.6 °F 19.1 °F 24.8 °F 93% 30.03 in 3.0 mi NE 6.9 mph - 0.02 in Snow Light Snow
7:53 AM 27.0 °F 19.5 °F 24.1 °F 89% 29.80 in 9.0 mi NNE 6.9 mph - 0.02 in   Overcast
8:53 AM 28.9 °F 19.8 °F 21.9 °F 75% 29.83 in 10.0 mi North 10.4 mph - N/A   Scattered Clouds
9:53 AM 30.9 °F 21.7 °F 24.1 °F 76% 29.85 in 10.0 mi North 11.5 mph - N/A   Overcast
10:53 AM 33.1 °F 26.1 °F 23.0 °F 66% 29.86 in 10.0 mi WNW 8.1 mph 16.1 mph N/A   Overcast
11:53 AM 33.1 °F 24.4 °F 23.0 °F 66% 29.86 in 10.0 mi NNW 11.5 mph 23.0 mph 0.00 in   Overcast
12:53 PM 34.0 °F 24.2 °F 23.0 °F 64% 29.89 in 10.0 mi NNW 15.0 mph 20.7 mph N/A   Overcast
1:53 PM 32.0 °F 21.6 °F 25.0 °F 75% 29.87 in 1.0 mi NW 15.0 mph 20.7 mph 0.00 in Snow Light Snow
1:59 PM 30.2 °F 22.6 °F 26.6 °F 86% 30.09 in 0.2 mi WNW 8.1 mph 19.6 mph 0.00 in Fog , Snow Snow
2:06 PM 32.0 °F 26.4 °F 26.6 °F 80% 30.08 in 1.0 mi NW 5.8 mph - 0.00 in Snow Light Snow
2:09 PM 33.8 °F 30.8 °F 26.6 °F 75% 30.08 in 2.5 mi NNW 3.5 mph - 0.00 in Snow Light Snow
2:11 PM 33.8 °F 30.8 °F 26.6 °F 75% 30.08 in 4.0 mi NNW 3.5 mph - 0.00 in Snow Light Snow
2:43 PM 32.0 °F 21.2 °F 24.8 °F 75% 30.09 in 1.8 mi NW 16.1 mph 25.3 mph 0.00 in Snow Light Snow
2:50 PM 30.2 °F 21.3 °F 26.6 °F 86% 30.10 in 0.2 mi NW 10.4 mph 23.0 mph 0.00 in Fog , Snow Snow
2:53 PM 28.9 °F 21.1 °F 27.0 °F 92% 29.94 in 0.2 mi NNW 8.1 mph 20.7 mph 0.00 in Fog , Snow Snow
3:02 PM 30.2 °F 21.3 °F 28.4 °F 93% 30.10 in 1.0 mi North 10.4 mph - 0.01 in Snow Light Snow
3:06 PM 30.2 °F 21.9 °F 28.4 °F 93% 30.10 in 1.8 mi North 9.2 mph - 0.01 in Snow Light Snow
3:13 PM 30.2 °F 21.9 °F 26.6 °F 86% 30.10 in 3.0 mi North 9.2 mph - 0.01 in Snow Light Snow
3:20 PM 30.2 °F 20.8 °F 26.6 °F 86% 30.10 in 9.0 mi North 11.5 mph 19.6 mph 0.01 in   Mostly Cloudy
3:27 PM 32.0 °F 23.6 °F 24.8 °F 75% 30.10 in 10.0 mi NNW 10.4 mph 19.6 mph 0.01 in   Overcast
3:53 PM 33.1 °F 26.9 °F 24.1 °F 70% 29.88 in 10.0 mi NNW 6.9 mph 17.3 mph 0.01 in   Mostly Cloudy
4:34 PM 30.2 °F 21.3 °F 26.6 °F 86% 30.12 in 2.0 mi WNW 10.4 mph - 0.00 in Snow Light Snow
4:42 PM 32.0 °F 26.4 °F 26.6 °F 80% 30.13 in 1.5 mi NNW 5.8 mph - 0.00 in Snow Light Snow
4:44 PM 32.0 °F 27.5 °F 26.6 °F 80% 30.13 in 3.0 mi NNW 4.6 mph - 0.00 in Snow Light Snow
4:53 PM 32.0 °F - 25.0 °F 75% 29.93 in 9.0 mi Calm Calm - 0.00 in   Overcast
5:01 PM 32.0 °F 26.4 °F 24.8 °F 75% 30.13 in 10.0 mi Variable 5.8 mph - N/A   Overcast
5:11 PM 33.8 °F 25.3 °F 23.0 °F 65% 30.13 in 10.0 mi West 11.5 mph 16.1 mph N/A   Overcast
5:53 PM 30.9 °F 21.2 °F 23.0 °F 72% 29.96 in 10.0 mi WNW 12.7 mph - N/A   Overcast
6:33 PM 30.2 °F 23.4 °F 21.2 °F 69% 30.17 in 10.0 mi Variable 6.9 mph - 0.00 in   Overcast
6:46 PM 28.4 °F 19.7 °F 21.2 °F 74% 30.17 in 10.0 mi NW 9.2 mph 18.4 mph 0.00 in   Overcast
6:53 PM 28.9 °F 20.4 °F 21.9 °F 75% 30.01 in 10.0 mi NNW 9.2 mph - 0.00 in   Overcast
7:53 PM 28.0 °F 19.3 °F 21.0 °F 75% 30.04 in 10.0 mi NNW 9.2 mph - N/A   Mostly Cloudy
8:53 PM 28.0 °F 20.0 °F 19.9 °F 72% 30.04 in 10.0 mi NNW 8.1 mph - N/A   Mostly Cloudy
9:53 PM 28.0 °F 20.8 °F 19.9 °F 72% 30.04 in 10.0 mi NW 6.9 mph - N/A   Overcast
10:53 PM 27.0 °F 19.5 °F 21.0 °F 78% 30.03 in 10.0 mi WNW 6.9 mph - N/A   Overcast
11:53 PM 28.0 °F 20.8 °F 19.0 °F 69% 30.02 in 10.0 mi NW 6.9 mph - N/A   Overcast